owner,sensor,date,latitude,longitude,vertical_datum,sea_water_practical_salinity,qcFlag 
WAVCIS,ioos:station:WAVCIS:CSI16:2,2011-02-01T00:00:00Z,29.4012,-89.0355,1.0,34.054,11111222 
WAVCIS,ioos:station:WAVCIS:CSI16:2,2011-02-01T00:15:00Z,29.4012,-89.0355,1.0,34.053,11111222 
WAVCIS,ioos:station:WAVCIS:CSI16:2,2011-02-01T00:30:00Z,29.4012,-89.0355,1.0,34.055,11111222 
WAVCIS,ioos:station:WAVCIS:CSI16:2,2011-02-01T00:45:00Z,29.4012,-89.0355,1.0,34.055,11111222 
WAVCIS,ioos:station:WAVCIS:CSI16:2,2011-02-01T01:00:00Z,29.4012,-89.0355,1.0,34.052,11111222 
WAVCIS,ioos:station:WAVCIS:CSI16:2,2011-02-01T01:15:00Z,29.4012,-89.0355,1.0,34.051,11111222 
WAVCIS,ioos:station:WAVCIS:CSI16:2,2011-02-01T01:30:00Z,29.4012,-89.0355,1.0,34.05,11111222 
WAVCIS,ioos:station:WAVCIS:CSI16:2,2011-02-01T01:45:00Z,29.4012,-89.0355,1.0,34.049,11111222 
WAVCIS,ioos:station:WAVCIS:CSI16:2,2011-02-01T02:00:00Z,29.4012,-89.0355,1.0,34.048,11111222 
WAVCIS,ioos:station:WAVCIS:CSI16:2,2011-02-01T02:15:00Z,29.4012,-89.0355,1.0,34.049,11111222 
WAVCIS,ioos:station:WAVCIS:CSI16:2,2011-02-01T02:30:00Z,29.4012,-89.0355,1.0,34.047,11111222 
WAVCIS,ioos:station:WAVCIS:CSI16:2,2011-02-01T02:45:00Z,29.4012,-89.0355,1.0,34.044,11111222 
WAVCIS,ioos:station:WAVCIS:CSI16:2,2011-02-01T03:00:00Z,29.4012,-89.0355,1.0,34.039,11111222 
WAVCIS,ioos:station:WAVCIS:CSI16:2,2011-02-01T03:15:00Z,29.4012,-89.0355,1.0,34.038,11111222 
WAVCIS,ioos:station:WAVCIS:CSI16:2,2011-02-01T03:30:00Z,29.4012,-89.0355,1.0,34.037,11111222 
WAVCIS,ioos:station:WAVCIS:CSI16:2,2011-02-01T03:45:00Z,29.4012,-89.0355,1.0,34.035,11111222 
WAVCIS,ioos:station:WAVCIS:CSI16:2,2011-02-01T04:00:00Z,29.4012,-89.0355,1.0,34.033,11111222 
WAVCIS,ioos:station:WAVCIS:CSI16:2,2011-02-01T04:15:00Z,29.4012,-89.0355,1.0,34.034,11111222 
WAVCIS,ioos:station:WAVCIS:CSI16:2,2011-02-01T04:30:00Z,29.4012,-89.0355,1.0,34.033,11111222 
WAVCIS,ioos:station:WAVCIS:CSI16:2,2011-02-01T04:45:00Z,29.4012,-89.0355,1.0,34.029,11111222 
WAVCIS,ioos:station:WAVCIS:CSI16:2,2011-02-01T05:00:00Z,29.4012,-89.0355,1.0,34.028,11111222 
WAVCIS,ioos:station:WAVCIS:CSI16:2,2011-02-01T05:15:00Z,29.4012,-89.0355,1.0,34.021,11111222 
WAVCIS,ioos:station:WAVCIS:CSI16:2,2011-02-01T05:30:00Z,29.4012,-89.0355,1.0,34.021,11111222 
WAVCIS,ioos:station:WAVCIS:CSI16:2,2011-02-01T05:45:00Z,29.4012,-89.0355,1.0,34.014,11111222 
WAVCIS,ioos:station:WAVCIS:CSI16:2,2011-02-01T06:00:00Z,29.4012,-89.0355,1.0,34.014,11111222 
WAVCIS,ioos:station:WAVCIS:CSI16:2,2011-02-01T06:15:00Z,29.4012,-89.0355,1.0,34.01,11111222 
WAVCIS,ioos:station:WAVCIS:CSI16:2,2011-02-01T06:30:00Z,29.4012,-89.0355,1.0,34.006,11111222 
WAVCIS,ioos:station:WAVCIS:CSI16:2,2011-02-01T06:45:00Z,29.4012,-89.0355,1.0,34.009,11111222 
WAVCIS,ioos:station:WAVCIS:CSI16:2,2011-02-01T07:00:00Z,29.4012,-89.0355,1.0,33.993,11111222 
WAVCIS,ioos:station:WAVCIS:CSI16:2,2011-02-01T07:15:00Z,29.4012,-89.0355,1.0,33.993,11111222 
WAVCIS,ioos:station:WAVCIS:CSI16:2,2011-02-01T07:30:00Z,29.4012,-89.0355,1.0,34.0,11111222 
WAVCIS,ioos:station:WAVCIS:CSI16:2,2011-02-01T07:45:00Z,29.4012,-89.0355,1.0,33.991,11111222 
WAVCIS,ioos:station:WAVCIS:CSI16:2,2011-02-01T08:00:00Z,29.4012,-89.0355,1.0,33.987,11111222 
WAVCIS,ioos:station:WAVCIS:CSI16:2,2011-02-01T08:15:00Z,29.4012,-89.0355,1.0,33.976,11111222 
WAVCIS,ioos:station:WAVCIS:CSI16:2,2011-02-01T08:30:00Z,29.4012,-89.0355,1.0,33.968,11111222 
WAVCIS,ioos:station:WAVCIS:CSI16:2,2011-02-01T08:45:00Z,29.4012,-89.0355,1.0,33.964,11111222 
WAVCIS,ioos:station:WAVCIS:CSI16:2,2011-02-01T09:00:00Z,29.4012,-89.0355,1.0,33.945,11111222 
WAVCIS,ioos:station:WAVCIS:CSI16:2,2011-02-01T09:15:00Z,29.4012,-89.0355,1.0,33.925,11111222 
WAVCIS,ioos:station:WAVCIS:CSI16:2,2011-02-01T09:30:00Z,29.4012,-89.0355,1.0,33.904,11111222 
WAVCIS,ioos:station:WAVCIS:CSI16:2,2011-02-01T09:45:00Z,29.4012,-89.0355,1.0,33.89,11111222 
WAVCIS,ioos:station:WAVCIS:CSI16:2,2011-02-01T10:00:00Z,29.4012,-89.0355,1.0,33.886,11111222 
WAVCIS,ioos:station:WAVCIS:CSI16:2,2011-02-01T10:15:00Z,29.4012,-89.0355,1.0,33.8,11111222 
WAVCIS,ioos:station:WAVCIS:CSI16:2,2011-02-01T10:30:00Z,29.4012,-89.0355,1.0,33.763,11111222 
WAVCIS,ioos:station:WAVCIS:CSI16:2,2011-02-01T10:45:00Z,29.4012,-89.0355,1.0,33.557,11111222 
WAVCIS,ioos:station:WAVCIS:CSI16:2,2011-02-01T11:00:00Z,29.4012,-89.0355,1.0,33.309,11111222 
WAVCIS,ioos:station:WAVCIS:CSI16:2,2011-02-01T11:15:00Z,29.4012,-89.0355,1.0,33.359,11111222 
WAVCIS,ioos:station:WAVCIS:CSI16:2,2011-02-01T11:30:00Z,29.4012,-89.0355,1.0,33.273,11111222 
WAVCIS,ioos:station:WAVCIS:CSI16:2,2011-02-01T11:45:00Z,29.4012,-89.0355,1.0,33.075,11111222 
WAVCIS,ioos:station:WAVCIS:CSI16:2,2011-02-01T12:00:00Z,29.4012,-89.0355,1.0,33.032,11111222 
WAVCIS,ioos:station:WAVCIS:CSI16:2,2011-02-01T12:15:00Z,29.4012,-89.0355,1.0,32.768,11111222 
WAVCIS,ioos:station:WAVCIS:CSI16:2,2011-02-01T12:30:00Z,29.4012,-89.0355,1.0,32.805,11111222 
WAVCIS,ioos:station:WAVCIS:CSI16:2,2011-02-01T12:45:00Z,29.4012,-89.0355,1.0,32.869,11111222 
WAVCIS,ioos:station:WAVCIS:CSI16:2,2011-02-01T13:00:00Z,29.4012,-89.0355,1.0,32.908,11111222 
WAVCIS,ioos:station:WAVCIS:CSI16:2,2011-02-01T13:15:00Z,29.4012,-89.0355,1.0,32.39,11111222 
WAVCIS,ioos:station:WAVCIS:CSI16:2,2011-02-01T13:30:00Z,29.4012,-89.0355,1.0,32.728,11111222 
WAVCIS,ioos:station:WAVCIS:CSI16:2,2011-02-01T13:45:00Z,29.4012,-89.0355,1.0,32.584,11111222 
WAVCIS,ioos:station:WAVCIS:CSI16:2,2011-02-01T14:00:00Z,29.4012,-89.0355,1.0,33.236,11111222 
WAVCIS,ioos:station:WAVCIS:CSI16:2,2011-02-01T14:15:00Z,29.4012,-89.0355,1.0,33.389,11111222 
WAVCIS,ioos:station:WAVCIS:CSI16:2,2011-02-01T14:30:00Z,29.4012,-89.0355,1.0,33.271,11111222 
WAVCIS,ioos:station:WAVCIS:CSI16:2,2011-02-01T14:45:00Z,29.4012,-89.0355,1.0,33.386,11111222 
WAVCIS,ioos:station:WAVCIS:CSI16:2,2011-02-01T15:00:00Z,29.4012,-89.0355,1.0,33.517,11111222 
WAVCIS,ioos:station:WAVCIS:CSI16:2,2011-02-01T15:15:00Z,29.4012,-89.0355,1.0,33.555,11111222 
WAVCIS,ioos:station:WAVCIS:CSI16:2,2011-02-01T15:30:00Z,29.4012,-89.0355,1.0,33.328,11111222 
WAVCIS,ioos:station:WAVCIS:CSI16:2,2011-02-01T15:45:00Z,29.4012,-89.0355,1.0,33.383,11111222 
WAVCIS,ioos:station:WAVCIS:CSI16:2,2011-02-01T16:00:00Z,29.4012,-89.0355,1.0,33.435,11111222 
WAVCIS,ioos:station:WAVCIS:CSI16:2,2011-02-01T16:15:00Z,29.4012,-89.0355,1.0,33.541,11111222 
WAVCIS,ioos:station:WAVCIS:CSI16:2,2011-02-01T16:30:00Z,29.4012,-89.0355,1.0,33.499,11111222 
WAVCIS,ioos:station:WAVCIS:CSI16:2,2011-02-01T16:45:00Z,29.4012,-89.0355,1.0,33.488,11111222 
WAVCIS,ioos:station:WAVCIS:CSI16:2,2011-02-01T17:00:00Z,29.4012,-89.0355,1.0,33.419,11111222 
WAVCIS,ioos:station:WAVCIS:CSI16:2,2011-02-01T17:15:00Z,29.4012,-89.0355,1.0,33.426,11111222 
WAVCIS,ioos:station:WAVCIS:CSI16:2,2011-02-01T17:30:00Z,29.4012,-89.0355,1.0,33.465,11111222 
WAVCIS,ioos:station:WAVCIS:CSI16:2,2011-02-01T17:45:00Z,29.4012,-89.0355,1.0,33.476,11111222 
WAVCIS,ioos:station:WAVCIS:CSI16:2,2011-02-01T18:00:00Z,29.4012,-89.0355,1.0,33.448,11111222 
WAVCIS,ioos:station:WAVCIS:CSI16:2,2011-02-01T18:15:00Z,29.4012,-89.0355,1.0,33.427,11111222 
WAVCIS,ioos:station:WAVCIS:CSI16:2,2011-02-01T18:30:00Z,29.4012,-89.0355,1.0,33.416,11111222 
WAVCIS,ioos:station:WAVCIS:CSI16:2,2011-02-01T18:45:00Z,29.4012,-89.0355,1.0,33.401,11111222 
WAVCIS,ioos:station:WAVCIS:CSI16:2,2011-02-01T19:00:00Z,29.4012,-89.0355,1.0,33.38,11111222 
WAVCIS,ioos:station:WAVCIS:CSI16:2,2011-02-01T19:15:00Z,29.4012,-89.0355,1.0,33.384,11111222 
WAVCIS,ioos:station:WAVCIS:CSI16:2,2011-02-01T19:30:00Z,29.4012,-89.0355,1.0,33.394,11111222 
WAVCIS,ioos:station:WAVCIS:CSI16:2,2011-02-01T19:45:00Z,29.4012,-89.0355,1.0,33.411,11111222 
WAVCIS,ioos:station:WAVCIS:CSI16:2,2011-02-01T20:00:00Z,29.4012,-89.0355,1.0,33.418,11111222 
WAVCIS,ioos:station:WAVCIS:CSI16:2,2011-02-01T20:15:00Z,29.4012,-89.0355,1.0,33.417,11111222 
WAVCIS,ioos:station:WAVCIS:CSI16:2,2011-02-01T20:30:00Z,29.4012,-89.0355,1.0,33.445,11111222 
WAVCIS,ioos:station:WAVCIS:CSI16:2,2011-02-01T20:45:00Z,29.4012,-89.0355,1.0,33.488,11111222 
WAVCIS,ioos:station:WAVCIS:CSI16:2,2011-02-01T21:00:00Z,29.4012,-89.0355,1.0,33.619,11111222 
WAVCIS,ioos:station:WAVCIS:CSI16:2,2011-02-01T21:15:00Z,29.4012,-89.0355,1.0,33.633,11111222 
WAVCIS,ioos:station:WAVCIS:CSI16:2,2011-02-01T21:30:00Z,29.4012,-89.0355,1.0,33.681,11111222 
WAVCIS,ioos:station:WAVCIS:CSI16:2,2011-02-01T21:45:00Z,29.4012,-89.0355,1.0,33.702,11111222 
WAVCIS,ioos:station:WAVCIS:CSI16:2,2011-02-01T22:00:00Z,29.4012,-89.0355,1.0,33.478,11111222 
WAVCIS,ioos:station:WAVCIS:CSI16:2,2011-02-01T22:15:00Z,29.4012,-89.0355,1.0,33.283,11111222 
WAVCIS,ioos:station:WAVCIS:CSI16:2,2011-02-01T22:30:00Z,29.4012,-89.0355,1.0,33.125,11111222 
WAVCIS,ioos:station:WAVCIS:CSI16:2,2011-02-01T22:45:00Z,29.4012,-89.0355,1.0,33.672,11111222 
WAVCIS,ioos:station:WAVCIS:CSI16:2,2011-02-01T23:00:00Z,29.4012,-89.0355,1.0,33.71,11111222 
WAVCIS,ioos:station:WAVCIS:CSI16:2,2011-02-01T23:15:00Z,29.4012,-89.0355,1.0,33.665,11111222 
WAVCIS,ioos:station:WAVCIS:CSI16:2,2011-02-01T23:30:00Z,29.4012,-89.0355,1.0,33.507,11111222 
WAVCIS,ioos:station:WAVCIS:CSI16:2,2011-02-01T23:45:00Z,29.4012,-89.0355,1.0,33.566,11111222 
WAVCIS,ioos:station:WAVCIS:CSI16:2,2011-02-02T00:00:00Z,29.4012,-89.0355,1.0,33.647,11111222 
WAVCIS,ioos:station:WAVCIS:CSI16:2,2011-02-02T00:15:00Z,29.4012,-89.0355,1.0,33.648,11111222 
WAVCIS,ioos:station:WAVCIS:CSI16:2,2011-02-02T00:30:00Z,29.4012,-89.0355,1.0,33.699,11111222 
WAVCIS,ioos:station:WAVCIS:CSI16:2,2011-02-02T00:45:00Z,29.4012,-89.0355,1.0,33.845,11111222 
WAVCIS,ioos:station:WAVCIS:CSI16:2,2011-02-02T01:00:00Z,29.4012,-89.0355,1.0,33.828,11111222 
WAVCIS,ioos:station:WAVCIS:CSI16:2,2011-02-02T01:15:00Z,29.4012,-89.0355,1.0,33.882,11111222 
WAVCIS,ioos:station:WAVCIS:CSI16:2,2011-02-02T01:30:00Z,29.4012,-89.0355,1.0,33.881,11111222 
WAVCIS,ioos:station:WAVCIS:CSI16:2,2011-02-02T01:45:00Z,29.4012,-89.0355,1.0,33.897,11111222 
WAVCIS,ioos:station:WAVCIS:CSI16:2,2011-02-02T02:00:00Z,29.4012,-89.0355,1.0,33.928,11111222 
WAVCIS,ioos:station:WAVCIS:CSI16:2,2011-02-02T02:15:00Z,29.4012,-89.0355,1.0,33.938,11111222 
WAVCIS,ioos:station:WAVCIS:CSI16:2,2011-02-02T02:30:00Z,29.4012,-89.0355,1.0,33.958,11111222 
WAVCIS,ioos:station:WAVCIS:CSI16:2,2011-02-02T02:45:00Z,29.4012,-89.0355,1.0,33.991,11111222 
WAVCIS,ioos:station:WAVCIS:CSI16:2,2011-02-02T03:00:00Z,29.4012,-89.0355,1.0,33.98,11111222 
WAVCIS,ioos:station:WAVCIS:CSI16:2,2011-02-02T03:15:00Z,29.4012,-89.0355,1.0,33.978,11111222 
WAVCIS,ioos:station:WAVCIS:CSI16:2,2011-02-02T03:30:00Z,29.4012,-89.0355,1.0,33.99,11111222 
WAVCIS,ioos:station:WAVCIS:CSI16:2,2011-02-02T03:45:00Z,29.4012,-89.0355,1.0,33.986,11111222 
WAVCIS,ioos:station:WAVCIS:CSI16:2,2011-02-02T04:00:00Z,29.4012,-89.0355,1.0,33.993,11111222 
WAVCIS,ioos:station:WAVCIS:CSI16:2,2011-02-02T04:15:00Z,29.4012,-89.0355,1.0,33.999,11111222 
WAVCIS,ioos:station:WAVCIS:CSI16:2,2011-02-02T04:30:00Z,29.4012,-89.0355,1.0,34.009,11111222 
WAVCIS,ioos:station:WAVCIS:CSI16:2,2011-02-02T04:45:00Z,29.4012,-89.0355,1.0,34.016,11111222 
WAVCIS,ioos:station:WAVCIS:CSI16:2,2011-02-02T05:00:00Z,29.4012,-89.0355,1.0,33.999,11111222 
WAVCIS,ioos:station:WAVCIS:CSI16:2,2011-02-02T05:15:00Z,29.4012,-89.0355,1.0,34.012,11111222 
WAVCIS,ioos:station:WAVCIS:CSI16:2,2011-02-02T05:30:00Z,29.4012,-89.0355,1.0,33.767,11111222 
WAVCIS,ioos:station:WAVCIS:CSI16:2,2011-02-02T05:45:00Z,29.4012,-89.0355,1.0,33.518,11111222 
WAVCIS,ioos:station:WAVCIS:CSI16:2,2011-02-02T06:00:00Z,29.4012,-89.0355,1.0,33.295,11111222 
WAVCIS,ioos:station:WAVCIS:CSI16:2,2011-02-02T06:15:00Z,29.4012,-89.0355,1.0,33.213,11111222 
WAVCIS,ioos:station:WAVCIS:CSI16:2,2011-02-02T06:30:00Z,29.4012,-89.0355,1.0,33.15,11111222 
WAVCIS,ioos:station:WAVCIS:CSI16:2,2011-02-02T06:45:00Z,29.4012,-89.0355,1.0,32.991,11111222 
WAVCIS,ioos:station:WAVCIS:CSI16:2,2011-02-02T07:00:00Z,29.4012,-89.0355,1.0,32.865,11111222 
WAVCIS,ioos:station:WAVCIS:CSI16:2,2011-02-02T07:15:00Z,29.4012,-89.0355,1.0,32.665,11111222 
WAVCIS,ioos:station:WAVCIS:CSI16:2,2011-02-02T07:30:00Z,29.4012,-89.0355,1.0,32.647,11111222 
WAVCIS,ioos:station:WAVCIS:CSI16:2,2011-02-02T07:45:00Z,29.4012,-89.0355,1.0,32.708,11111222 
WAVCIS,ioos:station:WAVCIS:CSI16:2,2011-02-02T08:00:00Z,29.4012,-89.0355,1.0,32.782,11111222 
WAVCIS,ioos:station:WAVCIS:CSI16:2,2011-02-02T08:15:00Z,29.4012,-89.0355,1.0,32.595,11111222 
WAVCIS,ioos:station:WAVCIS:CSI16:2,2011-02-02T08:30:00Z,29.4012,-89.0355,1.0,32.493,11111222 
WAVCIS,ioos:station:WAVCIS:CSI16:2,2011-02-02T08:45:00Z,29.4012,-89.0355,1.0,32.011,11111222 
WAVCIS,ioos:station:WAVCIS:CSI16:2,2011-02-02T09:00:00Z,29.4012,-89.0355,1.0,32.074,11111222 
WAVCIS,ioos:station:WAVCIS:CSI16:2,2011-02-02T09:15:00Z,29.4012,-89.0355,1.0,32.5,11111222 
WAVCIS,ioos:station:WAVCIS:CSI16:2,2011-02-02T09:30:00Z,29.4012,-89.0355,1.0,32.149,11111222 
WAVCIS,ioos:station:WAVCIS:CSI16:2,2011-02-02T09:45:00Z,29.4012,-89.0355,1.0,32.027,11111222 
WAVCIS,ioos:station:WAVCIS:CSI16:2,2011-02-02T10:00:00Z,29.4012,-89.0355,1.0,32.215,11111222 
WAVCIS,ioos:station:WAVCIS:CSI16:2,2011-02-02T10:15:00Z,29.4012,-89.0355,1.0,31.731,11111222 
WAVCIS,ioos:station:WAVCIS:CSI16:2,2011-02-02T10:30:00Z,29.4012,-89.0355,1.0,31.405,11111222 
WAVCIS,ioos:station:WAVCIS:CSI16:2,2011-02-02T10:45:00Z,29.4012,-89.0355,1.0,30.556,11111222 
WAVCIS,ioos:station:WAVCIS:CSI16:2,2011-02-02T11:00:00Z,29.4012,-89.0355,1.0,30.536,11111222 
WAVCIS,ioos:station:WAVCIS:CSI16:2,2011-02-02T11:15:00Z,29.4012,-89.0355,1.0,30.525,11111222 
WAVCIS,ioos:station:WAVCIS:CSI16:2,2011-02-02T11:30:00Z,29.4012,-89.0355,1.0,30.56,11111222 
WAVCIS,ioos:station:WAVCIS:CSI16:2,2011-02-02T11:45:00Z,29.4012,-89.0355,1.0,30.468,11111222 
WAVCIS,ioos:station:WAVCIS:CSI16:2,2011-02-02T12:00:00Z,29.4012,-89.0355,1.0,30.41,11111222 
WAVCIS,ioos:station:WAVCIS:CSI16:2,2011-02-02T12:15:00Z,29.4012,-89.0355,1.0,30.447,11111222 
WAVCIS,ioos:station:WAVCIS:CSI16:2,2011-02-02T12:30:00Z,29.4012,-89.0355,1.0,30.355,11111222 
WAVCIS,ioos:station:WAVCIS:CSI16:2,2011-02-02T12:45:00Z,29.4012,-89.0355,1.0,30.292,11111222 
WAVCIS,ioos:station:WAVCIS:CSI16:2,2011-02-02T13:00:00Z,29.4012,-89.0355,1.0,30.186,11111222 
WAVCIS,ioos:station:WAVCIS:CSI16:2,2011-02-02T13:15:00Z,29.4012,-89.0355,1.0,30.225,11111222 
WAVCIS,ioos:station:WAVCIS:CSI16:2,2011-02-02T13:30:00Z,29.4012,-89.0355,1.0,30.268,11111222 
WAVCIS,ioos:station:WAVCIS:CSI16:2,2011-02-02T13:45:00Z,29.4012,-89.0355,1.0,30.38,11111222 
WAVCIS,ioos:station:WAVCIS:CSI16:2,2011-02-02T14:00:00Z,29.4012,-89.0355,1.0,30.561,11111222 
WAVCIS,ioos:station:WAVCIS:CSI16:2,2011-02-02T14:15:00Z,29.4012,-89.0355,1.0,30.743,11111222 
WAVCIS,ioos:station:WAVCIS:CSI16:2,2011-02-02T14:30:00Z,29.4012,-89.0355,1.0,31.018,11111222 
WAVCIS,ioos:station:WAVCIS:CSI16:2,2011-02-02T14:45:00Z,29.4012,-89.0355,1.0,31.212,11111222 
WAVCIS,ioos:station:WAVCIS:CSI16:2,2011-02-02T15:00:00Z,29.4012,-89.0355,1.0,31.361,11111222 
WAVCIS,ioos:station:WAVCIS:CSI16:2,2011-02-02T15:15:00Z,29.4012,-89.0355,1.0,31.505,11111222 
WAVCIS,ioos:station:WAVCIS:CSI16:2,2011-02-02T15:30:00Z,29.4012,-89.0355,1.0,31.543,11111222 
WAVCIS,ioos:station:WAVCIS:CSI16:2,2011-02-02T15:45:00Z,29.4012,-89.0355,1.0,31.555,11111222 
WAVCIS,ioos:station:WAVCIS:CSI16:2,2011-02-02T16:00:00Z,29.4012,-89.0355,1.0,31.521,11111222 
WAVCIS,ioos:station:WAVCIS:CSI16:2,2011-02-02T16:15:00Z,29.4012,-89.0355,1.0,31.576,11111222 
WAVCIS,ioos:station:WAVCIS:CSI16:2,2011-02-02T16:30:00Z,29.4012,-89.0355,1.0,31.577,11111222 
WAVCIS,ioos:station:WAVCIS:CSI16:2,2011-02-02T16:45:00Z,29.4012,-89.0355,1.0,31.337,11111222 
WAVCIS,ioos:station:WAVCIS:CSI16:2,2011-02-02T17:00:00Z,29.4012,-89.0355,1.0,31.288,11111222 
WAVCIS,ioos:station:WAVCIS:CSI16:2,2011-02-02T17:15:00Z,29.4012,-89.0355,1.0,31.286,11111222 
WAVCIS,ioos:station:WAVCIS:CSI16:2,2011-02-02T17:30:00Z,29.4012,-89.0355,1.0,31.253,11111222 
WAVCIS,ioos:station:WAVCIS:CSI16:2,2011-02-02T17:45:00Z,29.4012,-89.0355,1.0,31.249,11111222 
WAVCIS,ioos:station:WAVCIS:CSI16:2,2011-02-02T18:00:00Z,29.4012,-89.0355,1.0,31.25,11111222 
WAVCIS,ioos:station:WAVCIS:CSI16:2,2011-02-02T18:15:00Z,29.4012,-89.0355,1.0,31.187,11111222 
WAVCIS,ioos:station:WAVCIS:CSI16:2,2011-02-02T18:30:00Z,29.4012,-89.0355,1.0,31.174,11111222 
WAVCIS,ioos:station:WAVCIS:CSI16:2,2011-02-02T18:45:00Z,29.4012,-89.0355,1.0,31.128,11111222 
WAVCIS,ioos:station:WAVCIS:CSI16:2,2011-02-02T19:00:00Z,29.4012,-89.0355,1.0,31.126,11111222 
WAVCIS,ioos:station:WAVCIS:CSI16:2,2011-02-02T19:15:00Z,29.4012,-89.0355,1.0,31.171,11111222 
WAVCIS,ioos:station:WAVCIS:CSI16:2,2011-02-02T19:30:00Z,29.4012,-89.0355,1.0,31.192,11111222 
WAVCIS,ioos:station:WAVCIS:CSI16:2,2011-02-02T19:45:00Z,29.4012,-89.0355,1.0,31.21,11111222 
WAVCIS,ioos:station:WAVCIS:CSI16:2,2011-02-02T20:00:00Z,29.4012,-89.0355,1.0,31.321,11111222 
WAVCIS,ioos:station:WAVCIS:CSI16:2,2011-02-02T20:15:00Z,29.4012,-89.0355,1.0,31.379,11111222 
WAVCIS,ioos:station:WAVCIS:CSI16:2,2011-02-02T20:30:00Z,29.4012,-89.0355,1.0,31.412,11111222 
WAVCIS,ioos:station:WAVCIS:CSI16:2,2011-02-02T20:45:00Z,29.4012,-89.0355,1.0,31.468,11111222 
WAVCIS,ioos:station:WAVCIS:CSI16:2,2011-02-02T21:00:00Z,29.4012,-89.0355,1.0,31.52,11111222 
WAVCIS,ioos:station:WAVCIS:CSI16:2,2011-02-02T21:15:00Z,29.4012,-89.0355,1.0,31.563,11111222 
WAVCIS,ioos:station:WAVCIS:CSI16:2,2011-02-02T21:30:00Z,29.4012,-89.0355,1.0,31.624,11111222 
WAVCIS,ioos:station:WAVCIS:CSI16:2,2011-02-02T21:45:00Z,29.4012,-89.0355,1.0,31.654,11111222 
WAVCIS,ioos:station:WAVCIS:CSI16:2,2011-02-02T22:00:00Z,29.4012,-89.0355,1.0,31.706,11111222 
WAVCIS,ioos:station:WAVCIS:CSI16:2,2011-02-02T22:15:00Z,29.4012,-89.0355,1.0,31.689,11111222 
WAVCIS,ioos:station:WAVCIS:CSI16:2,2011-02-02T22:30:00Z,29.4012,-89.0355,1.0,31.692,11111222 
WAVCIS,ioos:station:WAVCIS:CSI16:2,2011-02-02T22:45:00Z,29.4012,-89.0355,1.0,31.667,11111222 
WAVCIS,ioos:station:WAVCIS:CSI16:2,2011-02-02T23:00:00Z,29.4012,-89.0355,1.0,31.644,11111222 
WAVCIS,ioos:station:WAVCIS:CSI16:2,2011-02-02T23:15:00Z,29.4012,-89.0355,1.0,31.628,11111222 
WAVCIS,ioos:station:WAVCIS:CSI16:2,2011-02-02T23:30:00Z,29.4012,-89.0355,1.0,31.622,11111222 
WAVCIS,ioos:station:WAVCIS:CSI16:2,2011-02-02T23:45:00Z,29.4012,-89.0355,1.0,31.595,11111222 
WAVCIS,ioos:station:WAVCIS:CSI16:2,2011-02-03T00:00:00Z,29.4012,-89.0355,1.0,31.597,11111222 
WAVCIS,ioos:station:WAVCIS:CSI16:2,2011-02-03T00:15:00Z,29.4012,-89.0355,1.0,31.574,11111222 
WAVCIS,ioos:station:WAVCIS:CSI16:2,2011-02-03T00:30:00Z,29.4012,-89.0355,1.0,31.552,11111222 
WAVCIS,ioos:station:WAVCIS:CSI16:2,2011-02-03T00:45:00Z,29.4012,-89.0355,1.0,31.539,11111222 
WAVCIS,ioos:station:WAVCIS:CSI16:2,2011-02-03T01:00:00Z,29.4012,-89.0355,1.0,31.54,11111222 
WAVCIS,ioos:station:WAVCIS:CSI16:2,2011-02-03T01:15:00Z,29.4012,-89.0355,1.0,31.525,11111222 
WAVCIS,ioos:station:WAVCIS:CSI16:2,2011-02-03T01:30:00Z,29.4012,-89.0355,1.0,31.525,11111222 
WAVCIS,ioos:station:WAVCIS:CSI16:2,2011-02-03T01:45:00Z,29.4012,-89.0355,1.0,31.521,11111222 
WAVCIS,ioos:station:WAVCIS:CSI16:2,2011-02-03T02:00:00Z,29.4012,-89.0355,1.0,31.52,11111222 
WAVCIS,ioos:station:WAVCIS:CSI16:2,2011-02-03T02:15:00Z,29.4012,-89.0355,1.0,31.53,11111222 
WAVCIS,ioos:station:WAVCIS:CSI16:2,2011-02-03T02:30:00Z,29.4012,-89.0355,1.0,31.536,11111222 
WAVCIS,ioos:station:WAVCIS:CSI16:2,2011-02-03T02:45:00Z,29.4012,-89.0355,1.0,31.535,11111222 
WAVCIS,ioos:station:WAVCIS:CSI16:2,2011-02-03T03:00:00Z,29.4012,-89.0355,1.0,31.535,11111222 
WAVCIS,ioos:station:WAVCIS:CSI16:2,2011-02-03T03:15:00Z,29.4012,-89.0355,1.0,31.549,11111222 
WAVCIS,ioos:station:WAVCIS:CSI16:2,2011-02-03T03:30:00Z,29.4012,-89.0355,1.0,31.672,11111222 
WAVCIS,ioos:station:WAVCIS:CSI16:2,2011-02-03T03:45:00Z,29.4012,-89.0355,1.0,31.702,11111222 
WAVCIS,ioos:station:WAVCIS:CSI16:2,2011-02-03T04:00:00Z,29.4012,-89.0355,1.0,31.681,11111222 
WAVCIS,ioos:station:WAVCIS:CSI16:2,2011-02-03T04:15:00Z,29.4012,-89.0355,1.0,31.699,11111222 
WAVCIS,ioos:station:WAVCIS:CSI16:2,2011-02-03T04:30:00Z,29.4012,-89.0355,1.0,31.751,11111222 
WAVCIS,ioos:station:WAVCIS:CSI16:2,2011-02-03T04:45:00Z,29.4012,-89.0355,1.0,31.785,11111222 
WAVCIS,ioos:station:WAVCIS:CSI16:2,2011-02-03T05:00:00Z,29.4012,-89.0355,1.0,31.774,11111222 
WAVCIS,ioos:station:WAVCIS:CSI16:2,2011-02-03T05:15:00Z,29.4012,-89.0355,1.0,31.77,11111222 
WAVCIS,ioos:station:WAVCIS:CSI16:2,2011-02-03T05:30:00Z,29.4012,-89.0355,1.0,31.732,11111222 
WAVCIS,ioos:station:WAVCIS:CSI16:2,2011-02-03T05:45:00Z,29.4012,-89.0355,1.0,31.767,11111222 
WAVCIS,ioos:station:WAVCIS:CSI16:2,2011-02-03T06:00:00Z,29.4012,-89.0355,1.0,31.777,11111222 
WAVCIS,ioos:station:WAVCIS:CSI16:2,2011-02-03T06:15:00Z,29.4012,-89.0355,1.0,31.803,11111222 
WAVCIS,ioos:station:WAVCIS:CSI16:2,2011-02-03T06:30:00Z,29.4012,-89.0355,1.0,31.865,11111222 
WAVCIS,ioos:station:WAVCIS:CSI16:2,2011-02-03T06:45:00Z,29.4012,-89.0355,1.0,31.918,11111222 
WAVCIS,ioos:station:WAVCIS:CSI16:2,2011-02-03T07:00:00Z,29.4012,-89.0355,1.0,31.948,11111222 
WAVCIS,ioos:station:WAVCIS:CSI16:2,2011-02-03T07:15:00Z,29.4012,-89.0355,1.0,32.039,11111222 
WAVCIS,ioos:station:WAVCIS:CSI16:2,2011-02-03T07:30:00Z,29.4012,-89.0355,1.0,32.061,11111222 
WAVCIS,ioos:station:WAVCIS:CSI16:2,2011-02-03T07:45:00Z,29.4012,-89.0355,1.0,32.07,11111222 
WAVCIS,ioos:station:WAVCIS:CSI16:2,2011-02-03T08:00:00Z,29.4012,-89.0355,1.0,32.076,11111222 
WAVCIS,ioos:station:WAVCIS:CSI16:2,2011-02-03T08:15:00Z,29.4012,-89.0355,1.0,32.108,11111222 
WAVCIS,ioos:station:WAVCIS:CSI16:2,2011-02-03T08:30:00Z,29.4012,-89.0355,1.0,32.182,11111222 
WAVCIS,ioos:station:WAVCIS:CSI16:2,2011-02-03T08:45:00Z,29.4012,-89.0355,1.0,32.222,11111222 
WAVCIS,ioos:station:WAVCIS:CSI16:2,2011-02-03T09:00:00Z,29.4012,-89.0355,1.0,32.228,11111222 
WAVCIS,ioos:station:WAVCIS:CSI16:2,2011-02-03T09:15:00Z,29.4012,-89.0355,1.0,32.315,11111222 
WAVCIS,ioos:station:WAVCIS:CSI16:2,2011-02-03T09:30:00Z,29.4012,-89.0355,1.0,32.35,11111222 
WAVCIS,ioos:station:WAVCIS:CSI16:2,2011-02-03T09:45:00Z,29.4012,-89.0355,1.0,32.335,11111222 
WAVCIS,ioos:station:WAVCIS:CSI16:2,2011-02-03T10:00:00Z,29.4012,-89.0355,1.0,32.201,11111222 
WAVCIS,ioos:station:WAVCIS:CSI16:2,2011-02-03T10:15:00Z,29.4012,-89.0355,1.0,32.09,11111222 
WAVCIS,ioos:station:WAVCIS:CSI16:2,2011-02-03T10:30:00Z,29.4012,-89.0355,1.0,31.955,11111222 
WAVCIS,ioos:station:WAVCIS:CSI16:2,2011-02-03T10:45:00Z,29.4012,-89.0355,1.0,31.833,11111222 
WAVCIS,ioos:station:WAVCIS:CSI16:2,2011-02-03T11:00:00Z,29.4012,-89.0355,1.0,31.728,11111222 
WAVCIS,ioos:station:WAVCIS:CSI16:2,2011-02-03T11:15:00Z,29.4012,-89.0355,1.0,31.592,11111222 
WAVCIS,ioos:station:WAVCIS:CSI16:2,2011-02-03T11:30:00Z,29.4012,-89.0355,1.0,31.534,11111222 
WAVCIS,ioos:station:WAVCIS:CSI16:2,2011-02-03T11:45:00Z,29.4012,-89.0355,1.0,31.502,11111222 
WAVCIS,ioos:station:WAVCIS:CSI16:2,2011-02-03T12:00:00Z,29.4012,-89.0355,1.0,31.468,11111222 
WAVCIS,ioos:station:WAVCIS:CSI16:2,2011-02-03T12:15:00Z,29.4012,-89.0355,1.0,31.444,11111222 
WAVCIS,ioos:station:WAVCIS:CSI16:2,2011-02-03T12:30:00Z,29.4012,-89.0355,1.0,31.426,11111222 
WAVCIS,ioos:station:WAVCIS:CSI16:2,2011-02-03T12:45:00Z,29.4012,-89.0355,1.0,31.406,11111222 
WAVCIS,ioos:station:WAVCIS:CSI16:2,2011-02-03T13:00:00Z,29.4012,-89.0355,1.0,31.399,11111222 
WAVCIS,ioos:station:WAVCIS:CSI16:2,2011-02-03T13:15:00Z,29.4012,-89.0355,1.0,31.387,11111222 
WAVCIS,ioos:station:WAVCIS:CSI16:2,2011-02-03T13:30:00Z,29.4012,-89.0355,1.0,31.376,11111222 
WAVCIS,ioos:station:WAVCIS:CSI16:2,2011-02-03T13:45:00Z,29.4012,-89.0355,1.0,31.402,11111222 
WAVCIS,ioos:station:WAVCIS:CSI16:2,2011-02-03T14:00:00Z,29.4012,-89.0355,1.0,31.532,11111222 
WAVCIS,ioos:station:WAVCIS:CSI16:2,2011-02-03T14:15:00Z,29.4012,-89.0355,1.0,31.597,11111222 
WAVCIS,ioos:station:WAVCIS:CSI16:2,2011-02-03T14:30:00Z,29.4012,-89.0355,1.0,31.692,11111222 
WAVCIS,ioos:station:WAVCIS:CSI16:2,2011-02-03T14:45:00Z,29.4012,-89.0355,1.0,31.744,11111222 
WAVCIS,ioos:station:WAVCIS:CSI16:2,2011-02-03T15:00:00Z,29.4012,-89.0355,1.0,31.809,11111222 
WAVCIS,ioos:station:WAVCIS:CSI16:2,2011-02-03T15:15:00Z,29.4012,-89.0355,1.0,31.95,11111222 